When you browse on this site, cookies collect data to enhance your experience and personalize the content and advertising you see.
Visit our Privacy Policy to learn more. By continuing to use the site, you agree to this use of cookies and data.

Hourly Weather Elbasan

Today, 28 September, Monday

Time Temperature Precipitation Wind Pressure Humidity
00:00 +18°C° 0 mm 2 mps 732 mmHg 74%
01:00 +18°C° 0 mm 2 mps 732 mmHg 76%
02:00 +18°C° 0 mm 2 mps 731 mmHg 75%
03:00 +18°C° 0 mm 3 mps 731 mmHg 74%
04:00 +18°C° 0 mm 3 mps 731 mmHg 73%
05:00 +18°C° 0 mm 3 mps 731 mmHg 72%
06:00 +19°C° 0 mm 3 mps 732 mmHg 72%
07:00 +19°C° 0 mm 3 mps 732 mmHg 72%
08:00 +21°C° 0.4 mm 3 mps 732 mmHg 68%
09:00 +22°C° 0.4 mm 4 mps 733 mmHg 65%
10:00 +23°C° 0.4 mm 4 mps 733 mmHg 61%
11:00 +23°C° 0.9 mm 5 mps 733 mmHg 61%
12:00 +23°C° 0.9 mm 5 mps 733 mmHg 62%
13:00 +23°C° 0.9 mm 6 mps 733 mmHg 63%
14:00 +22°C° 0.9 mm 5 mps 733 mmHg 65%
15:00 +21°C° 0.9 mm 4 mps 733 mmHg 68%
16:00 +20°C° 0.9 mm 3 mps 733 mmHg 71%
17:00 +19°C° 0.6 mm 2 mps 733 mmHg 75%
18:00 +18°C° 0.6 mm 2 mps 733 mmHg 80%
19:00 +18°C° 0.6 mm 1 mps 733 mmHg 85%
20:00 +18°C° 0.8 mm 1 mps 733 mmHg 86%
21:00 +16°C° 0.8 mm 1 mps 733 mmHg 86%
22:00 +16°C° 0.8 mm 1 mps 733 mmHg 87%
23:00 +16°C° 1.6 mm 2 mps 733 mmHg 88%

Tomorrow, 29 September, Tuesday

Time Temperature Precipitation Wind Pressure Humidity
00:00 +16°C° 1.6 mm 2 mps 733 mmHg 89%
01:00 +16°C° 1.6 mm 3 mps 733 mmHg 91%
02:00 +16°C° 2.1 mm 3 mps 733 mmHg 90%
03:00 +15°C° 2.1 mm 2 mps 733 mmHg 90%
04:00 +15°C° 2.1 mm 2 mps 733 mmHg 90%
05:00 +15°C° 0.1 mm 1 mps 733 mmHg 87%
06:00 +16°C° 0.1 mm 1 mps 734 mmHg 85%
07:00 +16°C° 0.1 mm 1 mps 734 mmHg 82%
08:00 +17°C° 0.4 mm 2 mps 734 mmHg 79%
09:00 +18°C° 0.4 mm 2 mps 734 mmHg 75%
10:00 +19°C° 0.4 mm 3 mps 734 mmHg 72%
11:00 +19°C° 0.8 mm 3 mps 734 mmHg 71%
12:00 +19°C° 0.8 mm 3 mps 734 mmHg 71%
13:00 +19°C° 0.8 mm 4 mps 734 mmHg 70%
14:00 +19°C° 0.5 mm 3 mps 734 mmHg 72%
15:00 +18°C° 0.5 mm 3 mps 734 mmHg 73%
16:00 +18°C° 0.5 mm 3 mps 734 mmHg 75%
17:00 +17°C° 0.1 mm 2 mps 734 mmHg 79%
18:00 +16°C° 0.1 mm 1 mps 734 mmHg 84%
19:00 +15°C° 0.1 mm 1 mps 735 mmHg 88%
20:00 +15°C° 0 mm 1 mps 735 mmHg 88%
21:00 +14°C° 0 mm 1 mps 735 mmHg 88%
22:00 +14°C° 0 mm 1 mps 735 mmHg 89%
23:00 +14°C° 0 mm 1 mps 735 mmHg 88%

Day after tomorrow, 30 September, Wednesday

Time Temperature Precipitation Wind Pressure Humidity
00:00 +14°C° 0 mm 1 mps 735 mmHg 88%
01:00 +14°C° 0 mm 1 mps 735 mmHg 88%
02:00 +14°C° 0 mm 1 mps 734 mmHg 88%
03:00 +14°C° 0 mm 1 mps 734 mmHg 89%
04:00 +13°C° 0 mm 1 mps 734 mmHg 89%
05:00 +14°C° 0 mm 1 mps 734 mmHg 87%
06:00 +15°C° 0 mm 1 mps 734 mmHg 85%
07:00 +15°C° 0 mm 1 mps 734 mmHg 83%
08:00 +16°C° 0 mm 1 mps 734 mmHg 77%
09:00 +19°C° 0 mm 1 mps 734 mmHg 72%
10:00 +20°C° 0 mm 1 mps 733 mmHg 67%
11:00 +19°C° 0 mm 2 mps 733 mmHg 65%
12:00 +20°C° 0 mm 2 mps 733 mmHg 62%
13:00 +20°C° 0 mm 2 mps 732 mmHg 60%
14:00 +20°C° 0.1 mm 2 mps 732 mmHg 63%
15:00 +20°C° 0.1 mm 2 mps 731 mmHg 65%
16:00 +19°C° 0.1 mm 3 mps 731 mmHg 68%
17:00 +18°C° 0 mm 2 mps 731 mmHg 73%
18:00 +18°C° 0 mm 1 mps 731 mmHg 79%
19:00 +15°C° 0 mm 0 mps 732 mmHg 85%
20:00 +15°C° 0 mm 1 mps 731 mmHg 85%
21:00 +15°C° 0 mm 1 mps 731 mmHg 86%
22:00 +14°C° 0 mm 1 mps 731 mmHg 87%
23:00 +14°C° 0 mm 1 mps 731 mmHg 87%

1 October, Thursday

Time Temperature Precipitation Wind Pressure Humidity
00:00 +14°C° 0 mm 1 mps 731 mmHg 87%
01:00 +14°C° 0 mm 1 mps 731 mmHg 88%
02:00 +13°C° 0 mm 1 mps 730 mmHg 88%
03:00 +13°C° 0 mm 1 mps 730 mmHg 88%
04:00 +13°C° 0 mm 1 mps 730 mmHg 88%
05:00 +14°C° 0 mm 1 mps 730 mmHg 86%
06:00 +14°C° 0 mm 1 mps 730 mmHg 84%
07:00 +15°C° 0 mm 1 mps 730 mmHg 82%
08:00 +18°C° 0 mm 1 mps 730 mmHg 76%
09:00 +19°C° 0 mm 1 mps 730 mmHg 69%
10:00 +19°C° 0 mm 2 mps 730 mmHg 62%
11:00 +19°C° 0.2 mm 2 mps 730 mmHg 63%
12:00 +20°C° 0.2 mm 2 mps 730 mmHg 64%
13:00 +20°C° 0.2 mm 2 mps 729 mmHg 65%
14:00 +19°C° 0.3 mm 2 mps 729 mmHg 67%
15:00 +19°C° 0.3 mm 2 mps 729 mmHg 69%
16:00 +19°C° 0.3 mm 2 mps 729 mmHg 71%
17:00 +19°C° 0.1 mm 1 mps 729 mmHg 76%
18:00 +18°C° 0.1 mm 1 mps 730 mmHg 82%
19:00 +15°C° 0.1 mm 1 mps 730 mmHg 87%
20:00 +15°C° 0 mm 1 mps 730 mmHg 86%
21:00 +15°C° 0 mm 1 mps 731 mmHg 86%
22:00 +15°C° 0 mm 1 mps 731 mmHg 85%
23:00 +15°C° 0 mm 1 mps 731 mmHg 83%

2 October, Friday

Time Temperature Precipitation Wind Pressure Humidity
00:00 +15°C° 0 mm 1 mps 731 mmHg 82%
01:00 +14°C° 0 mm 1 mps 731 mmHg 81%
02:00 +14°C° 0 mm 1 mps 731 mmHg 80%
03:00 +14°C° 0 mm 1 mps 731 mmHg 80%
04:00 +14°C° 0 mm 1 mps 731 mmHg 80%
05:00 +15°C° 0 mm 1 mps 731 mmHg 78%
06:00 +16°C° 0 mm 1 mps 731 mmHg 76%
07:00 +18°C° 0 mm 1 mps 731 mmHg 75%
08:00 +19°C° 0 mm 1 mps 732 mmHg 68%
09:00 +21°C° 0 mm 1 mps 732 mmHg 61%
10:00 +23°C° 0 mm 1 mps 732 mmHg 54%
11:00 +24°C° 0 mm 1 mps 732 mmHg 52%
12:00 +25°C° 0 mm 1 mps 732 mmHg 50%
13:00 +25°C° 0 mm 1 mps 732 mmHg 47%
14:00 +25°C° 0 mm 2 mps 732 mmHg 50%
15:00 +24°C° 0 mm 2 mps 732 mmHg 52%
16:00 +24°C° 0 mm 2 mps 732 mmHg 55%
17:00 +21°C° 0 mm 2 mps 732 mmHg 62%
18:00 +21°C° 0 mm 1 mps 732 mmHg 70%
19:00 +19°C° 0 mm 1 mps 733 mmHg 78%
20:00 +19°C° 0 mm 1 mps 733 mmHg 77%
21:00 +19°C° 0 mm 1 mps 733 mmHg 76%
22:00 +18°C° 0 mm 1 mps 733 mmHg 76%
23:00 +18°C° 0 mm 1 mps 733 mmHg 74%

3 October, Saturday

Time Temperature Precipitation Wind Pressure Humidity
00:00 +18°C° 0 mm 1 mps 734 mmHg 73%
01:00 +18°C° 0 mm 1 mps 734 mmHg 71%
02:00 +18°C° 0 mm 1 mps 734 mmHg 69%
03:00 +18°C° 0 mm 1 mps 733 mmHg 68%
04:00 +18°C° 0 mm 1 mps 733 mmHg 66%
05:00 +19°C° 0 mm 1 mps 734 mmHg 66%
06:00 +19°C° 0 mm 1 mps 734 mmHg 65%
07:00 +20°C° 0 mm 1 mps 734 mmHg 65%
08:00 +22°C° 0 mm 1 mps 734 mmHg 58%
09:00 +24°C° 0 mm 1 mps 735 mmHg 52%
10:00 +26°C° 0 mm 1 mps 735 mmHg 45%
11:00 +27°C° 0 mm 1 mps 735 mmHg 43%
12:00 +28°C° 0 mm 1 mps 735 mmHg 41%
13:00 +28°C° 0 mm 1 mps 735 mmHg 39%
14:00 +28°C° 0 mm 2 mps 735 mmHg 43%
15:00 +27°C° 0 mm 2 mps 734 mmHg 47%
16:00 +27°C° 0 mm 2 mps 734 mmHg 52%
17:00 +25°C° 0 mm 2 mps 735 mmHg 56%
18:00 +23°C° 0 mm 1 mps 735 mmHg 61%
19:00 +22°C° 0 mm 1 mps 735 mmHg 65%
20:00 +22°C° 0 mm 1 mps 735 mmHg 61%
21:00 +22°C° 0 mm 1 mps 735 mmHg 58%
22:00 +21°C° 0 mm 2 mps 735 mmHg 54%
23:00 +22°C° 0 mm 1 mps 735 mmHg 53%
Show more